Location: Bastrop State Park
(30.1090°N, 97.2819°W)
Time: 10:35:12
(UTC-05:00)

Daily predictions for brighter satellites

Satellite Brightness Start Highest point End
(mag) Time Altitude Azimuth Time Altitude Azimuth Time Altitude Azimuth
Timation 1 Rocket 4.4 20:17:43 10° NNW 20:23:42 82° ENE 20:29:40 10° SSE
ALOS 4.4 20:19:46 10° SSW 20:23:50 30° W 20:27:57 10° NW
Cosmos 2154 Rocket 4.1 20:18:14 10° S 20:24:30 86° E 20:30:44 10° N
deb Centaur AC-2 4.3 20:20:48 10° W 20:25:06 58° SSW 20:29:22 10° ESE
Resurs 01 Rocket 3.6 20:23:41 10° E 20:25:40 13° ENE 20:27:39 10° NE
Meteor 2-21 Rocket 4.5 20:19:47 10° S 20:25:51 72° E 20:32:01 10° N
Landsat 4 4.1 20:22:20 10° N 20:26:04 68° WNW 20:29:45 10° SSW
SPOT 3 Rocket 3.7 20:22:51 10° SSE 20:28:01 86° WSW 20:33:12 10° NNW
Thor Agena Rocket 4.1 20:23:20 10° NNE 20:28:12 37° E 20:33:04 10° SSE
SL-16 R/B 2.8 20:27:32 10° SSE 20:32:35 34° ESE 20:37:38 10° NE
ERS-2 3.5 20:31:55 10° ESE 20:34:47 22° ENE 20:37:39 10° NNE
Cosmos 962 Rocket 4.4 20:34:38 10° S 20:40:44 80° E 20:46:55 10° N
Cosmos 1633 Rocket 3.1 20:46:03 10° N 20:50:25 83° W 20:54:47 10° S
Cosmos 2218 Rocket 4.3 20:46:25 10° SSE 20:52:26 48° E 20:58:33 10° NNE
Cosmos 2344 3.9 20:47:25 10° S 20:54:38 40° ESE 21:01:42 10° NE
Cosmos 1455 3.5 20:51:47 10° SSW 20:55:26 44° W 20:59:09 10° N
Cosmos 2341 Rocket 4.2 20:49:21 10° S 20:55:43 80° W 21:02:03 10° N
Cosmos 2366 rocket 4.3 20:50:53 10° SSE 20:56:45 46° E 21:02:42 10° NNE
Cosmos 1515 Rocket 3.6 20:55:21 10° S 20:59:48 85° W 21:04:17 10° N
USA 186 1.7 21:00:49 29° E 21:01:07 30° ENE 21:03:12 10° NNE
Cosmos 1371 Rocket 4.2 20:57:04 10° SSW 21:02:21 76° WNW 21:07:44 10° NNE
SL-8 Rocket 4.0 20:56:32 10° S 21:02:48 74° E 21:09:04 10° N
Envisat 3.0 20:57:46 10° SSE 21:02:51 87° ENE 21:07:56 10° NNW
Cosmos 1844 Rocket 4.4 20:58:23 10° NW 21:03:21 32° WSW 21:08:16 10° SSW
Cosmos 1441 Rocket 4.1 21:07:22 24° ESE 21:08:20 27° E 21:11:31 10° NE
ASC 2 Rocket 4.5 21:03:02 10° WSW 21:08:43 51° S 21:14:44 19° ESE
SWIFT 4.4 21:12:06 10° SSW 21:14:06 13° SSE 21:14:06 13° SSE
Gblst 52 Del rocket 4.2 21:10:45 10° SW 21:16:38 84° NW 21:22:08 10° NE
Sakura Rocket 3.4 21:11:45 10° W 21:17:29 62° SSW 21:19:40 29° ESE
SJ-6B 3.7 21:13:37 10° S 21:17:31 51° W 21:21:22 10° NNW
Meteor 2-3 Rocket 4.3 21:13:16 10° NNW 21:18:48 60° W 21:24:22 10° S
H-2A R/B 4.0 21:21:22 12° ENE 21:21:22 12° ENE 21:23:04 10° NE
Cosmos 1869 3.4 21:17:50 10° S 21:21:51 77° W 21:25:52 10° N
Cosmos 2237 Rocket 4.4 21:17:47 10° WSW 21:22:31 28° WNW 21:27:17 10° N
Cosmos 2056 Rocket 4.1 21:17:51 10° SSW 21:23:12 62° WNW 21:28:34 10° N
Cosmos 1452 Rocket 3.7 21:18:45 10° S 21:23:43 45° ESE 21:28:41 10° NNE
BREEZE-M DEB (TANK) 3.8 21:26:06 10° NNW 21:28:24 20° NNE 21:28:27 20° NNE
Cosmos 864 Rocket 4.4 21:25:40 10° S 21:31:47 90° W 21:37:57 10° N
ATLAS 2AS CENTAUR R/B 3.5 21:27:03 10° NW 21:34:24 52° WSW 21:40:36 12° S
NOAA 11 4.3 21:33:44 32° SE 21:36:08 56° ENE 21:41:30 10° N
ASTRO E2 2.7 21:33:47 10° W 21:37:48 75° N 21:38:44 50° ENE
Cosmos 2278 Rocket 2.8 21:34:01 10° NNW 21:39:32 54° WSW 21:44:01 15° S
Cosmos 1825 2.7 21:35:54 10° NNW 21:39:36 57° W 21:41:36 25° SSW
OAO 3 Rocket 3.0 21:35:54 10° WSW 21:40:42 87° NNW 21:42:38 36° ENE
Meteor 2-10 Rocket 4.0 21:37:50 10° SSW 21:43:32 70° W 21:49:20 10° N
Cosmos 1939 Rocket 3.4 21:41:30 25° SSW 21:43:33 53° W 21:47:23 10° NNW
Cosmos 405 Rocket 2.5 21:43:26 53° S 21:44:17 84° E 21:48:13 10° N
Spot 2 Rocket 3.4 21:42:55 35° SSE 21:45:05 80° ENE 21:50:11 10° N
Cosmos 1190 Rocket 3.9 21:40:09 10° N 21:45:24 71° ENE 21:46:57 45° SE
Cosmos 1408 4.1 21:44:21 10° NNW 21:47:43 35° W 21:50:06 17° SSW
CZ-4C R/B 2.0 21:44:05 10° SSW 21:49:01 82° WNW 21:54:34 10° NNE
Cosmos 2098 Rocket 4.1 21:47:22 10° SSW 21:51:47 42° W 21:55:20 10° NNW
Cosmos 405 3.2 21:49:48 10° N 21:52:46 62° N 21:52:46 62° N
ARGOS 3.7 21:55:19 38° ENE 21:55:19 38° ENE 22:00:13 10° N
Cosmos 1954 Rocket 4.5 21:50:48 10° N 21:55:34 41° ENE 21:55:34 41° ENE
BREEZE-M DEB (TANK) 3.9 21:52:38 10° WNW 21:56:06 40° SW 21:56:36 37° SSW
ATLAS 2A CENTAUR R/B 4.3 21:32:25 10° WSW 21:56:26 75° S 22:03:00 32° E
Hubble Space Telescope 1.4 21:52:50 10° WSW 21:55:59 44° SW 21:55:59 44° SW
Resurs 01 Rocket 2.6 21:59:38 25° SSW 22:01:43 43° W 22:05:56 10° NNW
Cosmos 614 Rocket 4.3 21:59:11 10° N 22:03:58 50° ENE 22:03:58 50° ENE
NOSS 3-4 (A) 3.8 21:58:10 10° NNW 22:05:27 81° ENE 22:07:57 47° SE
NOSS 3-4 (C) 3.8 21:58:16 10° NNW 22:05:34 80° ENE 22:08:01 47° SE
ERS-1 Rocket 4.1 22:09:44 29° NE 22:09:44 29° NE 22:13:00 10° N
Lacrosse 5 4.1 22:08:57 10° NNE 22:11:06 12° NE 22:11:23 12° NE
Cosmos 2239 Rocket 4.4 22:13:05 62° SE 22:13:43 66° E 22:19:59 10° NNE
Cosmos 1707 Rocket 3.9 22:14:22 61° W 22:14:25 61° W 22:18:42 10° N
Cosmos 1821 Rocket 3.9 22:14:57 63° SE 22:15:47 71° E 22:22:03 10° N
SL-16 R/B 4.4 22:12:07 10° WSW 22:16:40 25° WNW 22:21:14 10° N
Cosmos 1727 Rocket 4.5 22:18:45 10° NNW 22:24:45 55° W 22:27:16 33° SSW
MetOp-A 4.2 22:28:40 72° N 22:28:40 72° N 22:33:29 10° N
Cosmos 407 Rocket 4.5 22:26:00 10° NNW 22:30:43 38° W 22:31:26 36° WSW
Aurora 2 Rocket 3.9 22:24:52 10° WSW 22:32:55 56° SSW 22:32:55 56° SSW
Cosmos 1943 4.3 22:44:56 35° NNE 22:44:56 35° NNE 22:48:07 10° NNE
Cosmos 2369 Rocket 3.6 22:49:35 10° N 22:52:46 29° NNE 22:52:46 29° NNE
H-2A R/B 3.3 23:01:59 36° NW 23:01:59 36° NW 23:05:04 10° NNW
Terra 4.3 23:06:29 14° NNE 23:06:29 14° NNE 23:07:16 10° N
ATLAS 5 CENTAUR R/B 3.6 22:59:36 10° NNW 23:03:41 34° NNE 23:03:41 34° NNE
Cosmos 1943 Rocket 4.2 23:42:21 10° NNW 23:44:20 23° NNW 23:44:20 23° NNW
